Weather History for South Bend, IN

Change the Weather History Date:

Thursday, January 17, 2013

  Actual Average Record
Temperature  
Mean Temperature 28 °F 24 °F  
Max Temperature 34 °F 31 °F 64 °F (1952)
Min Temperature 21 °F 17 °F -16 °F (1977)
Degree Days  
Heating Degree Days 37 41  
Month to date heating degree days 611 689  
Since 1 July heating degree days 2811 3080  
Cooling Degree Days 0 0  
Month to date cooling degree days 0 0  
Year to date cooling degree days 0 0  
Moisture  
Dew Point 19 °F    
Average Humidity 64    
Maximum Humidity 78    
Minimum Humidity 49    
Precipitation  
Precipitation 0.00 in 0.07 in 0.67 in (1988)
Month to date precipitation 1.27 1.36  
Year to date precipitation 1.27 1.36  
Snow  
Snow 0.00 in - - ()
Month to date snowfall 0.3  
Snow Depth 0.00 in    
Sea Level Pressure  
Sea Level Pressure 30.24 in    
Wind  
Wind Speed 11 mph (WNW)    
Max Wind Speed 26 mph    
Max Gust Speed 31 mph    
Visibility 10 miles    
Events      
T = Trace of Precipitation, MM = Missing Value Source: NWS Daily Summary

Daily Weather History Graph

Daily Weather History Graph

Search for Another Location

Airport:

Trip Planner

Search our weather history database for the weather conditions in past years. The results will help you decide how hot, cold, wet, or windy it might be!

Date:

Astronomy

Jan. 17, 2013 Rise Set
Actual Time 8:08 AM EST 5:42 PM EST
Civil Twilight 7:38 AM EST 6:13 PM EST
Nautical Twilight 7:04 AM EST 6:47 PM EST
Astronomical Twilight 6:30 AM EST 7:20 PM EST
Moon 11:09 AM EST (1/17) No Moon Set
Length of Visible Light 10h 34m
Length of Day
9h 33m
Waxing Crescent, 37% of the Moon is Illuminated
Jan 17
Waxing Crescent
Jan 18
First Quarter
Jan 26
Full
Feb 3
Last Quarter
Feb 10
New

Hourly Weather History & Observations

Time (EST) Temp. Windchill Dew Point Humidity Pressure Visibility Wind Dir Wind Speed Gust Speed Precip Events Conditions
12:54 AM 33.1 °F 28.7 °F 26.1 °F 75% 30.06 in 10.0 mi SW 4.6 mph - N/A   Overcast
1:51 AM 33.8 °F 28.6 °F 26.6 °F 75% 30.06 in 10.0 mi SW 5.8 mph - N/A   Overcast
1:54 AM 33.1 °F 27.7 °F 26.1 °F 75% 30.09 in 10.0 mi SSW 5.8 mph - N/A   Overcast
2:05 AM 33.8 °F 27.7 °F 26.6 °F 75% 30.07 in 10.0 mi SW 6.9 mph - N/A   Overcast
2:54 AM 33.1 °F 26.9 °F 26.1 °F 75% 30.12 in 10.0 mi WSW 6.9 mph - N/A   Overcast
3:54 AM 33.1 °F 30.0 °F 27.0 °F 78% 30.13 in 10.0 mi WSW 3.5 mph - N/A   Overcast
4:31 AM 32.0 °F 28.7 °F 26.6 °F 80% 30.11 in 10.0 mi SW 3.5 mph - N/A   Overcast
4:54 AM 33.1 °F 28.7 °F 27.0 °F 78% 30.15 in 10.0 mi WSW 4.6 mph - N/A   Overcast
5:54 AM 32.0 °F 27.5 °F 27.0 °F 82% 30.17 in 10.0 mi NW 4.6 mph - N/A   Overcast
6:54 AM 30.9 °F 22.2 °F 25.0 °F 79% 30.20 in 10.0 mi NNW 10.4 mph - N/A   Clear
7:54 AM 28.9 °F 19.8 °F 21.9 °F 75% 30.22 in 10.0 mi NNW 10.4 mph - N/A   Clear
8:54 AM 30.0 °F 22.4 °F 23.0 °F 75% 30.23 in 10.0 mi NW 8.1 mph - N/A   Clear
9:54 AM 33.1 °F 21.9 °F 21.9 °F 64% 30.26 in 10.0 mi NNW 18.4 mph - N/A   Clear
10:54 AM 32.0 °F 20.8 °F 19.9 °F 61% 30.28 in 10.0 mi NW 17.3 mph 25.3 mph N/A   Partly Cloudy
11:54 AM 33.1 °F 23.4 °F 18.0 °F 54% 30.28 in 10.0 mi NW 13.8 mph 21.9 mph N/A   Clear
12:54 PM 32.0 °F 20.8 °F 16.0 °F 52% 30.27 in 10.0 mi NW 17.3 mph 25.3 mph N/A   Clear
1:54 PM 30.9 °F 20.2 °F 17.1 °F 57% 30.27 in 10.0 mi NW 15.0 mph 25.3 mph N/A   Clear
2:54 PM 30.0 °F 16.0 °F 15.1 °F 54% 30.26 in 10.0 mi NNW 25.3 mph 31.1 mph N/A   Clear
3:51 PM 28.4 °F 14.7 °F 15.8 °F 59% 30.26 in 10.0 mi NNW 21.9 mph 29.9 mph N/A   Mostly Cloudy
3:54 PM 28.9 °F 15.1 °F 15.1 °F 56% 30.29 in 10.0 mi NNW 23.0 mph 29.9 mph N/A   Mostly Cloudy
4:11 PM 26.6 °F 12.0 °F 14.0 °F 59% 30.26 in 10.0 mi NNW 23.0 mph 31.1 mph N/A   Scattered Clouds
4:54 PM 26.1 °F 11.6 °F 12.9 °F 58% 30.33 in 10.0 mi NW 21.9 mph 28.8 mph N/A   Scattered Clouds
5:54 PM 24.1 °F 10.1 °F 10.9 °F 57% 30.35 in 10.0 mi NW 18.4 mph 23.0 mph N/A   Partly Cloudy
6:54 PM 21.9 °F 13.4 °F 10.9 °F 63% 30.37 in 10.0 mi NW 6.9 mph - N/A   Clear
7:54 PM 21.0 °F 16.2 °F 12.0 °F 68% 30.38 in 10.0 mi West 3.5 mph - N/A   Mostly Cloudy
8:54 PM 21.9 °F 17.2 °F 14.0 °F 72% 30.39 in 10.0 mi SW 3.5 mph - N/A   Overcast
9:54 PM 25.0 °F 19.3 °F 14.0 °F 63% 30.38 in 10.0 mi WNW 4.6 mph - N/A   Overcast
10:54 PM 26.1 °F 16.8 °F 12.9 °F 58% 30.39 in 10.0 mi NW 9.2 mph - N/A   Overcast
11:54 PM 26.1 °F 16.2 °F 12.9 °F 58% 30.39 in 10.0 mi West 10.4 mph - N/A   Overcast